Time,TemperatureF,DewpointF,PressureIn,WindDirection,WindDirectionDegrees,WindSpeedMPH,WindSpeedGustMPH,Humidity,HourlyPrecipIn,Conditions,Clouds,dailyrainin,SolarRadiationWatts/m^2,SoftwareType,DateUTC
2013-05-12 00:00:00,33.0,29.0,30.23,South,188,2.0,-999.0,85,-99.99,,,-99.99,0.000000,,2013-05-12 05:00:00,
2013-05-12 00:52:00,33.0,29.0,30.23,South,188,2.0,-999.0,85,-99.99,,,-99.99,0.000000,,2013-05-12 05:52:00,
2013-05-12 03:00:00,31.0,29.0,30.24,South,178,2.0,-999.0,93,-99.99,,,-99.99,0.000000,,2013-05-12 08:00:00,
2013-05-12 03:53:00,31.0,29.0,30.24,South,178,2.0,-999.0,93,-99.99,,,-99.99,0.000000,,2013-05-12 08:53:00,
2013-05-12 04:00:00,31.0,28.0,30.25,SE,135,1.0,-999.0,89,-99.99,,,-99.99,0.000000,,2013-05-12 09:00:00,
2013-05-12 04:53:00,31.0,28.0,30.25,SE,135,1.0,-999.0,89,-99.99,,,-99.99,0.000000,,2013-05-12 09:53:00,
2013-05-12 05:00:00,31.0,29.0,30.24,SSE,155,1.0,-999.0,92,-99.99,,,-99.99,0.000000,,2013-05-12 10:00:00,
2013-05-12 05:52:00,31.0,29.0,30.24,SSE,155,1.0,-999.0,92,-99.99,,,-99.99,0.000000,,2013-05-12 10:52:00,
2013-05-12 06:00:00,32.0,30.0,30.24,South,173,0.0,-999.0,94,-99.99,,,-99.99,0.080000,,2013-05-12 11:00:00,
2013-05-12 06:52:00,32.0,30.0,30.24,South,173,0.0,-999.0,94,-99.99,,,-99.99,0.080000,,2013-05-12 11:52:00,
2013-05-12 07:00:00,34.0,31.0,30.25,South,178,1.0,-999.0,91,-99.99,,,-99.99,29.790001,,2013-05-12 12:00:00,
2013-05-12 07:52:00,34.0,31.0,30.25,South,178,1.0,-999.0,91,-99.99,,,-99.99,29.790001,,2013-05-12 12:52:00,
2013-05-12 08:00:00,43.0,33.0,30.24,South,191,0.0,-999.0,68,-99.99,,,-99.99,123.599998,,2013-05-12 13:00:00,
2013-05-12 08:52:00,43.0,33.0,30.24,South,191,0.0,-999.0,68,-99.99,,,-99.99,123.599998,,2013-05-12 13:52:00,
2013-05-12 09:00:00,49.0,28.0,30.24,NNE,19,1.0,-999.0,44,-99.99,,,-99.99,281.899994,,2013-05-12 14:00:00,
2013-05-12 09:52:00,49.0,28.0,30.24,NNE,19,1.0,-999.0,44,-99.99,,,-99.99,281.899994,,2013-05-12 14:52:00,
2013-05-12 10:00:00,54.0,22.0,30.25,SE,127,2.0,-999.0,28,-99.99,,,-99.99,513.000000,,2013-05-12 15:00:00,
2013-05-12 10:53:00,54.0,22.0,30.25,SE,127,2.0,-999.0,28,-99.99,,,-99.99,513.000000,,2013-05-12 15:53:00,
2013-05-12 11:00:00,57.0,23.0,30.23,SSW,193,3.0,-999.0,26,-99.99,,,-99.99,693.700012,,2013-05-12 16:00:00,
2013-05-12 11:53:00,57.0,23.0,30.23,SSW,193,3.0,-999.0,26,-99.99,,,-99.99,693.700012,,2013-05-12 16:53:00,
2013-05-12 12:00:00,59.0,19.0,30.22,SSE,163,4.0,-999.0,21,-99.99,,,-99.99,803.000000,,2013-05-12 17:00:00,
2013-05-12 12:53:00,59.0,19.0,30.22,SSE,163,4.0,-999.0,21,-99.99,,,-99.99,803.000000,,2013-05-12 17:53:00,
2013-05-12 14:00:00,62.0,22.0,30.18,SE,143,4.0,-999.0,21,-99.99,,,-99.99,809.000000,,2013-05-12 19:00:00,
2013-05-12 14:52:00,62.0,22.0,30.18,SE,143,4.0,-999.0,21,-99.99,,,-99.99,809.000000,,2013-05-12 19:52:00,
2013-05-12 15:00:00,63.0,22.0,30.16,SSE,154,5.0,-999.0,21,-99.99,,,-99.99,725.000000,,2013-05-12 20:00:00,
2013-05-12 15:52:00,63.0,22.0,30.16,SSE,154,5.0,-999.0,21,-99.99,,,-99.99,725.000000,,2013-05-12 20:52:00,
2013-05-12 16:00:00,64.0,21.0,30.14,SE,145,4.0,-999.0,19,-99.99,,,-99.99,632.200012,,2013-05-12 21:00:00,
2013-05-12 16:53:00,64.0,21.0,30.14,SE,145,4.0,-999.0,19,-99.99,,,-99.99,632.200012,,2013-05-12 21:53:00,
2013-05-12 17:00:00,67.0,28.0,30.13,SSW,210,4.0,-999.0,23,-99.99,,,-99.99,599.400024,,2013-05-12 22:00:00,
2013-05-12 17:52:00,67.0,28.0,30.13,SSW,210,4.0,-999.0,23,-99.99,,,-99.99,599.400024,,2013-05-12 22:52:00,
2013-05-12 18:00:00,66.0,25.0,30.11,SSE,158,4.0,-999.0,21,-99.99,,,-99.99,505.500000,,2013-05-12 23:00:00,
2013-05-12 18:52:00,66.0,25.0,30.11,SSE,158,4.0,-999.0,21,-99.99,,,-99.99,505.500000,,2013-05-12 23:52:00,
2013-05-12 19:00:00,66.0,27.0,30.09,SSE,162,3.0,-999.0,23,-99.99,,,-99.99,306.000000,,2013-05-13 00:00:00,
2013-05-12 19:52:00,66.0,27.0,30.09,SSE,162,3.0,-999.0,23,-99.99,,,-99.99,306.000000,,2013-05-13 00:52:00,
2013-05-12 20:00:00,63.0,31.0,30.08,SSE,149,4.0,-999.0,30,-99.99,,,-99.99,130.500000,,2013-05-13 01:00:00,
2013-05-12 20:52:00,63.0,31.0,30.08,SSE,149,4.0,-999.0,30,-99.99,,,-99.99,130.500000,,2013-05-13 01:52:00,
2013-05-12 21:00:00,53.0,34.0,30.09,SSE,161,2.0,-999.0,49,-99.99,,,-99.99,11.030000,,2013-05-13 02:00:00,
2013-05-12 21:52:00,53.0,34.0,30.09,SSE,161,2.0,-999.0,49,-99.99,,,-99.99,11.030000,,2013-05-13 02:52:00,
2013-05-12 22:00:00,51.0,34.0,30.10,South,172,1.0,-999.0,51,-99.99,,,-99.99,0.000000,,2013-05-13 03:00:00,
2013-05-12 22:53:00,51.0,34.0,30.10,South,172,1.0,-999.0,51,-99.99,,,-99.99,0.000000,,2013-05-13 03:53:00,
2013-05-12 23:00:00,52.0,33.0,30.09,South,180,2.0,-999.0,49,-99.99,,,-99.99,0.000000,,2013-05-13 04:00:00,
2013-05-12 23:53:00,52.0,33.0,30.09,South,180,2.0,-999.0,49,-99.99,,,-99.99,0.000000,,2013-05-13 04:53:00,